| time (UTC) | temp F | wind direction | speed knots | gust knots | rain 1hr in | rain 24hr in | rain mn in | humidity % | barometer mb |
| 20260510105143 | 56 | 115 | 1.7 | 1.7 | 0.00 | 0.00 | 0.00 | 87 | 1014.5 |
| 20260510103934 | 56 | 138 | 1.7 | 1.7 | 0.00 | 0.00 | 0.00 | 87 | 1014.5 |
| 20260510103324 | 56 | 142 | 0.9 | 1.7 | 0.00 | 0.00 | 0.00 | 87 | 1014.2 |
| 20260510102717 | 56 | 100 | 2.6 | 3.5 | 0.00 | 0.00 | 0.00 | 87 | 1014.2 |
| 20260510102142 | 56 | 138 | 0.0 | 2.6 | 0.00 | 0.00 | 0.00 | 87 | 1014.2 |
| 20260510101510 | 56 | 201 | 0.0 | 1.7 | 0.00 | 0.00 | 0.00 | 88 | 1014.2 |
| 20260510100351 | 55 | 210 | 0.0 | 1.7 | 0.00 | 0.00 | 0.00 | 89 | 1013.8 |
| 20260510095710 | 56 | 2 | 0.0 | 2.6 | 0.00 | 0.00 | 0.00 | 86 | 1013.5 |
| 20260510095139 | 56 | 140 | 1.7 | 3.5 | 0.00 | 0.00 | 0.00 | 86 | 1013.5 |
| 20260510094539 | 56 | 143 | 2.6 | 3.5 | 0.00 | 0.00 | 0.00 | 86 | 1013.5 |
| 20260510093908 | 56 | 144 | 0.9 | 1.7 | 0.00 | 0.00 | 0.00 | 87 | 1013.5 |
| 20260510093327 | 56 | 113 | 2.6 | 2.6 | 0.00 | 0.00 | 0.00 | 87 | 1013.5 |
| 20260510092725 | 56 | 142 | 1.7 | 2.6 | 0.00 | 0.00 | 0.00 | 86 | 1013.8 |
| 20260510092129 | 56 | 179 | 1.7 | 2.6 | 0.00 | 0.00 | 0.00 | 86 | 1013.5 |
| 20260510091537 | 56 | 162 | 1.7 | 3.5 | 0.00 | 0.00 | 0.00 | 86 | 1013.5 |
| 20260510090909 | 56 | 176 | 0.9 | 1.7 | 0.00 | 0.00 | 0.00 | 86 | 1013.5 |
| 20260510090341 | 56 | 173 | 1.7 | 2.6 | 0.00 | 0.00 | 0.00 | 86 | 1013.5 |
| 20260510085716 | 57 | 160 | 1.7 | 3.5 | 0.00 | 0.00 | 0.00 | 85 | 1013.5 |
| 20260510083948 | 56 | 129 | 1.7 | 2.6 | 0.00 | 0.00 | 0.00 | 86 | 1013.5 |
| 20260510083352 | 56 | 159 | 2.6 | 3.5 | 0.00 | 0.00 | 0.00 | 86 | 1013.2 |
| 20260510082744 | 56 | 149 | 1.7 | 2.6 | 0.00 | 0.00 | 0.00 | 86 | 1013.2 |
| 20260510082119 | 57 | 163 | 1.7 | 3.5 | 0.00 | 0.00 | 0.00 | 84 | 1013.2 |
| 20260510081549 | 57 | 195 | 1.7 | 3.5 | 0.00 | 0.00 | 0.00 | 84 | 1013.2 |
| 20260510080918 | 57 | 149 | 1.7 | 2.6 | 0.00 | 0.00 | 0.00 | 84 | 1013.2 |
| 20260510080327 | 57 | 186 | 2.6 | 2.6 | 0.00 | 0.00 | 0.00 | 84 | 1012.8 |
| 20260510075750 | 57 | 124 | 3.5 | 4.3 | 0.00 | 0.00 | 0.00 | 84 | 1013.2 |
| 20260510074542 | 57 | 213 | 0.9 | 1.7 | 0.00 | 0.00 | 0.00 | 85 | 1013.2 |
| 20260510073942 | 57 | 170 | 1.7 | 2.6 | 0.00 | 0.00 | 0.00 | 84 | 1012.8 |
| 20260510073347 | 57 | 122 | 0.0 | 1.7 | 0.00 | 0.00 | 0.00 | 84 | 1012.8 |
| 20260510072734 | 57 | 130 | 0.9 | 1.7 | 0.00 | 0.00 | 0.00 | 84 | 1013.2 |
| 20260510072126 | 58 | 196 | 0.0 | 3.5 | 0.00 | 0.00 | 0.00 | 84 | 1012.8 |
| 20260510071546 | 58 | 91 | 1.7 | 4.3 | 0.00 | 0.00 | 0.00 | 83 | 1013.2 |
| 20260510070925 | 58 | 180 | 1.7 | 3.5 | 0.00 | 0.00 | 0.00 | 84 | 1012.8 |
| 20260510070312 | 57 | 158 | 0.9 | 2.6 | 0.00 | 0.00 | 0.00 | 84 | 1013.2 |
| 20260510065734 | 58 | 171 | 0.0 | 3.5 | 0.00 | 0.00 | 0.00 | 84 | 1013.2 |
| 20260510065141 | 58 | 151 | 1.7 | 3.5 | 0.00 | 0.00 | 0.00 | 83 | 1012.8 |
| 20260510063923 | 58 | 135 | 1.7 | 5.2 | 0.00 | 0.00 | 0.00 | 82 | 1013.2 |
| 20260510063330 | 58 | 111 | 2.6 | 5.2 | 0.00 | 0.00 | 0.00 | 82 | 1013.2 |
| 20260510062709 | 58 | 191 | 1.7 | 3.5 | 0.00 | 0.00 | 0.00 | 82 | 1013.2 |
| 20260510062146 | 58 | 192 | 4.3 | 5.2 | 0.00 | 0.00 | 0.00 | 82 | 1012.8 |
| 20260510061534 | 58 | 162 | 0.9 | 3.5 | 0.00 | 0.00 | 0.00 | 82 | 1013.2 |
| 20260510060949 | 58 | 204 | 1.7 | 3.5 | 0.00 | 0.00 | 0.00 | 82 | 1013.2 |
| 20260510060341 | 59 | 200 | 3.5 | 3.5 | 0.00 | 0.00 | 0.00 | 82 | 1013.2 |
| 20260510055725 | 59 | 155 | 3.5 | 4.3 | 0.00 | 0.00 | 0.00 | 81 | 1013.2 |
| 20260510055118 | 59 | 115 | 2.6 | 5.2 | 0.00 | 0.00 | 0.00 | 80 | 1012.8 |
| 20260510054538 | 59 | 214 | 2.6 | 5.2 | 0.00 | 0.00 | 0.00 | 80 | 1013.2 |
| 20260510053314 | 60 | 171 | 5.2 | 7.0 | 0.00 | 0.00 | 0.00 | 80 | 1013.2 |
| 20260510052149 | 59 | 165 | 7.0 | 7.0 | 0.00 | 0.00 | 0.00 | 80 | 1013.5 |
| 20260510051548 | 59 | 130 | 3.5 | 7.0 | 0.00 | 0.00 | 0.00 | 80 | 1013.2 |
| 20260510050912 | 59 | 139 | 2.6 | 5.2 | 0.00 | 0.00 | 0.00 | 80 | 1013.5 |
| 20260510050332 | 60 | 179 | 5.2 | 7.0 | 0.00 | 0.00 | 0.00 | 79 | 1013.2 |
| 20260510045721 | 60 | 159 | 4.3 | 7.8 | 0.00 | 0.00 | 0.00 | 79 | 1013.2 |
| 20260510045110 | 60 | 180 | 2.6 | 8.7 | 0.00 | 0.00 | 0.00 | 79 | 1013.2 |
| 20260510043931 | 60 | 172 | 1.7 | 7.0 | 0.00 | 0.00 | 0.00 | 79 | 1013.2 |
| 20260510043338 | 60 | 137 | 6.1 | 7.8 | 0.00 | 0.00 | 0.00 | 79 | 1013.2 |
| 20260510042711 | 60 | 198 | 8.7 | 9.6 | 0.00 | 0.00 | 0.00 | 78 | 1013.2 |
| 20260510042145 | 60 | 168 | 4.3 | 5.2 | 0.00 | 0.00 | 0.00 | 78 | 1013.5 |
| 20260510041533 | 60 | 183 | 2.6 | 8.7 | 0.00 | 0.00 | 0.00 | 78 | 1013.2 |
| 20260510040924 | 60 | 183 | 6.1 | 7.0 | 0.00 | 0.00 | 0.00 | 78 | 1013.2 |
| 20260510040343 | 60 | 193 | 3.5 | 7.0 | 0.00 | 0.00 | 0.09 | 78 | 1013.2 |
| 20260510035747 | 60 | 178 | 6.1 | 7.0 | 0.00 | 0.00 | 0.09 | 77 | 1013.2 |
| 20260510035123 | 60 | 225 | 6.1 | 9.6 | 0.00 | 0.00 | 0.09 | 77 | 1013.2 |
| 20260510034541 | 60 | 195 | 3.5 | 7.0 | 0.00 | 0.00 | 0.09 | 77 | 1013.2 |
| 20260510033909 | 60 | 226 | 0.9 | 3.5 | 0.00 | 0.00 | 0.09 | 77 | 1012.8 |
| 20260510033316 | 61 | 164 | 2.6 | 7.0 | 0.00 | 0.00 | 0.09 | 76 | 1012.8 |
| 20260510032752 | 61 | 218 | 4.3 | 7.0 | 0.00 | 0.00 | 0.09 | 76 | 1012.8 |
| 20260510032147 | 61 | 169 | 3.5 | 7.0 | 0.00 | 0.00 | 0.09 | 75 | 1012.8 |
| 20260510031524 | 60 | 185 | 2.6 | 5.2 | 0.00 | 0.00 | 0.09 | 76 | 1012.8 |
| 20260510030919 | 61 | 171 | 2.6 | 5.2 | 0.00 | 0.00 | 0.09 | 76 | 1012.5 |
| 20260510030328 | 61 | 217 | 3.5 | 4.3 | 0.00 | 0.00 | 0.09 | 75 | 1012.5 |
| 20260510025732 | 62 | 231 | 2.6 | 9.6 | 0.00 | 0.00 | 0.09 | 74 | 1012.8 |
| 20260510025122 | 61 | 166 | 2.6 | 9.6 | 0.00 | 0.00 | 0.09 | 74 | 1012.5 |
| 20260510023940 | 62 | 175 | 1.7 | 3.5 | 0.00 | 0.00 | 0.09 | 74 | 1012.5 |
| 20260510022739 | 62 | 132 | 2.6 | 5.2 | 0.00 | 0.00 | 0.09 | 73 | 1012.5 |
| 20260510021510 | 62 | 136 | 3.5 | 4.3 | 0.00 | 0.00 | 0.09 | 73 | 1012.5 |
| 20260510020952 | 62 | 219 | 5.2 | 5.2 | 0.00 | 0.00 | 0.09 | 73 | 1012.5 |
| 20260510015740 | 62 | 124 | 5.2 | 7.0 | 0.00 | 0.00 | 0.09 | 72 | 1012.5 |
| 20260510015143 | 62 | 180 | 3.5 | 3.5 | 0.00 | 0.00 | 0.09 | 72 | 1012.1 |
| 20260510014511 | 62 | 111 | 3.5 | 5.2 | 0.00 | 0.00 | 0.09 | 71 | 1012.1 |
| 20260510013946 | 62 | 172 | 2.6 | 4.3 | 0.00 | 0.00 | 0.09 | 71 | 1011.8 |
| 20260510012725 | 63 | 162 | 1.7 | 7.0 | 0.00 | 0.00 | 0.09 | 71 | 1011.8 |
| 20260510012131 | 63 | 173 | 3.5 | 5.2 | 0.00 | 0.00 | 0.09 | 70 | 1011.8 |
| 20260510011556 | 63 | 189 | 3.5 | 4.3 | 0.00 | 0.00 | 0.09 | 69 | 1011.5 |
| 20260510010951 | 63 | 125 | 1.7 | 4.3 | 0.00 | 0.00 | 0.09 | 69 | 1011.5 |
| 20260510010348 | 63 | 126 | 0.9 | 3.5 | 0.00 | 0.00 | 0.09 | 69 | 1011.5 |
| 20260510005143 | 64 | 161 | 1.7 | 3.5 | 0.00 | 0.00 | 0.09 | 68 | 1011.1 |
| 20260510004550 | 64 | 127 | 3.5 | 3.5 | 0.00 | 0.00 | 0.09 | 67 | 1011.1 |
| 20260510003307 | 64 | 180 | 2.6 | 5.2 | 0.00 | 0.00 | 0.09 | 68 | 1011.1 |
| 20260510002716 | 64 | 117 | 1.7 | 4.3 | 0.00 | 0.00 | 0.09 | 67 | 1011.1 |
| 20260510001511 | 65 | 171 | 3.5 | 4.3 | 0.00 | 0.00 | 0.09 | 66 | 1011.1 |
| 20260510000943 | 65 | 231 | 1.7 | 4.3 | 0.00 | 0.00 | 0.09 | 65 | 1011.1 |
| 20260510000349 | 65 | 192 | 5.2 | 9.6 | 0.00 | 0.00 | 0.09 | 64 | 1011.1 |
| 20260509235710 | 66 | 182 | 3.5 | 5.2 | 0.00 | 0.00 | 0.09 | 63 | 1011.1 |
| 20260509235126 | 66 | 177 | 2.6 | 6.1 | 0.00 | 0.00 | 0.09 | 63 | 1010.8 |
| 20260509234543 | 66 | 187 | 1.7 | 5.2 | 0.00 | 0.00 | 0.09 | 62 | 1010.8 |
| 20260509233949 | 66 | 167 | 7.0 | 7.8 | 0.00 | 0.00 | 0.09 | 62 | 1011.1 |
| 20260509233339 | 66 | 176 | 7.0 | 8.7 | 0.00 | 0.00 | 0.09 | 61 | 1010.8 |
| 20260509232130 | 67 | 143 | 2.6 | 4.3 | 0.00 | 0.00 | 0.09 | 61 | 1011.1 |
| 20260509231509 | 67 | 251 | 0.0 | 2.6 | 0.00 | 0.00 | 0.09 | 63 | 1010.8 |
| 20260509230951 | 67 | 176 | 2.6 | 5.2 | 0.00 | 0.00 | 0.09 | 60 | 1010.8 |
| 20260509230332 | 67 | 234 | 1.7 | 7.8 | 0.00 | 0.00 | 0.09 | 60 | 1010.8 |
| 20260509225146 | 68 | 211 | 5.2 | 7.8 | 0.00 | 0.00 | 0.09 | 58 | 1010.8 |
| 20260509224535 | 68 | 164 | 4.3 | 6.1 | 0.00 | 0.00 | 0.09 | 58 | 1010.8 |
| 20260509223928 | 68 | 180 | 5.2 | 7.0 | 0.00 | 0.00 | 0.09 | 60 | 1010.8 |
| 20260509223343 | 67 | 188 | 5.2 | 9.6 | 0.00 | 0.00 | 0.09 | 61 | 1011.1 |
| 20260509222130 | 67 | 180 | 5.2 | 14.8 | 0.00 | 0.00 | 0.09 | 60 | 1011.1 |
| 20260509220917 | 68 | 196 | 3.5 | 7.0 | 0.00 | 0.00 | 0.09 | 58 | 1011.5 |
| 20260509220325 | 68 | 194 | 0.0 | 7.0 | 0.00 | 0.00 | 0.09 | 61 | 1011.1 |
| 20260509215723 | 68 | 199 | 5.2 | 7.0 | 0.00 | 0.00 | 0.09 | 58 | 1011.1 |
| 20260509215134 | 68 | 177 | 7.0 | 7.8 | 0.00 | 0.00 | 0.09 | 59 | 1011.1 |
| 20260509214520 | 68 | 184 | 2.6 | 7.8 | 0.00 | 0.00 | 0.09 | 59 | 1011.1 |
| 20260509213334 | 68 | 250 | 4.3 | 9.6 | 0.00 | 0.00 | 0.09 | 63 | 1011.1 |
| 20260509212738 | 68 | 173 | 9.6 | 10.4 | 0.00 | 0.00 | 0.09 | 59 | 1011.1 |
| 20260509212145 | 68 | 196 | 0.0 | 6.1 | 0.00 | 0.00 | 0.09 | 59 | 1011.1 |
| 20260509211542 | 67 | 199 | 2.6 | 7.8 | 0.00 | 0.00 | 0.09 | 62 | 1011.1 |
| 20260509210931 | 66 | 162 | 6.1 | 7.8 | 0.00 | 0.00 | 0.09 | 62 | 1011.1 |
| 20260509210318 | 68 | 258 | 0.9 | 5.2 | 0.00 | 0.00 | 0.09 | 63 | 1011.1 |
| 20260509205747 | 68 | 180 | 3.5 | 11.3 | 0.00 | 0.00 | 0.09 | 61 | 1011.1 |
| 20260509205134 | 68 | 151 | 6.1 | 9.6 | 0.00 | 0.00 | 0.09 | 60 | 1011.1 |
| 20260509204537 | 68 | 244 | 1.7 | 4.3 | 0.00 | 0.00 | 0.09 | 60 | 1011.5 |
| 20260509203950 | 68 | 256 | 2.6 | 10.4 | 0.00 | 0.00 | 0.09 | 60 | 1011.1 |
| 20260509203321 | 66 | 145 | 9.6 | 10.4 | 0.00 | 0.00 | 0.09 | 62 | 1011.1 |
| 20260509202753 | 66 | 191 | 5.2 | 8.7 | 0.00 | 0.00 | 0.09 | 63 | 1011.1 |
| 20260509202126 | 69 | 197 | 7.8 | 10.4 | 0.00 | 0.00 | 0.09 | 59 | 1011.5 |
| 20260509201532 | 68 | 173 | 6.1 | 8.7 | 0.00 | 0.00 | 0.09 | 64 | 1011.5 |
| 20260509200939 | 66 | 191 | 11.3 | 11.3 | 0.00 | 0.00 | 0.09 | 63 | 1011.5 |
| 20260509200309 | 66 | 217 | 3.5 | 7.8 | 0.00 | 0.00 | 0.09 | 65 | 1011.5 |
| 20260509195125 | 67 | 169 | 2.6 | 7.8 | 0.00 | 0.00 | 0.09 | 64 | 1011.8 |
| 20260509193915 | 66 | 153 | 8.7 | 12.2 | 0.00 | 0.00 | 0.09 | 64 | 1011.8 |
| 20260509193337 | 65 | 173 | 3.5 | 13.0 | 0.00 | 0.00 | 0.09 | 65 | 1011.8 |
| 20260509192748 | 65 | 155 | 4.3 | 8.7 | 0.00 | 0.00 | 0.09 | 65 | 1011.8 |
| 20260509191527 | 65 | 165 | 4.3 | 11.3 | 0.00 | 0.00 | 0.09 | 64 | 1011.8 |
| 20260509190313 | 66 | 164 | 2.6 | 9.6 | 0.00 | 0.00 | 0.09 | 65 | 1011.5 |
| 20260509185750 | 66 | 179 | 4.3 | 6.1 | 0.00 | 0.00 | 0.09 | 67 | 1011.5 |
| 20260509185114 | 65 | 160 | 2.6 | 3.5 | 0.00 | 0.00 | 0.09 | 66 | 1011.8 |
| 20260509184531 | 64 | 224 | 3.5 | 8.7 | 0.00 | 0.00 | 0.09 | 66 | 1011.5 |
| 20260509183936 | 63 | 180 | 3.5 | 6.1 | 0.00 | 0.00 | 0.09 | 67 | 1011.5 |
| 20260509183343 | 62 | 244 | 1.7 | 7.0 | 0.00 | 0.00 | 0.09 | 67 | 1011.8 |
| 20260509182727 | 62 | 180 | 6.1 | 8.7 | 0.00 | 0.00 | 0.09 | 66 | 1011.8 |
| 20260509182153 | 61 | 156 | 4.3 | 7.8 | 0.00 | 0.00 | 0.09 | 68 | 1011.8 |
| 20260509181515 | 61 | 176 | 4.3 | 7.0 | 0.00 | 0.00 | 0.09 | 68 | 1011.8 |
| 20260509180942 | 62 | 166 | 7.0 | 7.0 | 0.00 | 0.00 | 0.09 | 73 | 1011.8 |
| 20260509180315 | 62 | 126 | 3.5 | 8.7 | 0.00 | 0.00 | 0.09 | 72 | 1011.8 |
| 20260509175737 | 62 | 24 | 1.7 | 4.3 | 0.00 | 0.00 | 0.09 | 73 | 1011.8 |
| 20260509175152 | 61 | 139 | 3.5 | 8.7 | 0.00 | 0.00 | 0.09 | 71 | 1011.8 |
| 20260509174526 | 61 | 151 | 6.1 | 10.4 | 0.00 | 0.00 | 0.09 | 74 | 1011.8 |
| 20260509173310 | 59 | 137 | 6.1 | 7.8 | 0.00 | 0.00 | 0.09 | 81 | 1011.8 |
| 20260509172726 | 60 | 132 | 1.7 | 4.3 | 0.00 | 0.00 | 0.09 | 82 | 1011.8 |
| 20260509171510 | 58 | 100 | 2.6 | 4.3 | 0.00 | 0.00 | 0.09 | 85 | 1011.8 |
| 20260509170921 | 57 | 163 | 1.7 | 5.2 | 0.00 | 0.00 | 0.09 | 86 | 1012.1 |
| 20260509170323 | 57 | 135 | 6.1 | 6.1 | 0.00 | 0.00 | 0.09 | 87 | 1012.1 |
| 20260509165719 | 57 | 145 | 2.6 | 5.2 | 0.00 | 0.00 | 0.09 | 89 | 1012.1 |
| 20260509165132 | 57 | 37 | 0.9 | 4.3 | 0.00 | 0.00 | 0.08 | 92 | 1012.1 |
| 20260509164539 | 56 | 180 | 2.6 | 4.3 | 0.00 | 0.00 | 0.08 | 92 | 1012.5 |
| 20260509163934 | 56 | 201 | 1.7 | 4.3 | 0.00 | 0.00 | 0.08 | 93 | 1012.5 |
| 20260509162115 | 57 | 219 | 1.7 | 2.6 | 0.00 | 0.00 | 0.08 | 93 | 1012.1 |
| 20260509161540 | 57 | 135 | 1.7 | 3.5 | 0.00 | 0.00 | 0.08 | 93 | 1012.1 |
| 20260509160930 | 57 | 134 | 1.7 | 2.6 | 0.00 | 0.00 | 0.08 | 93 | 1012.1 |
| 20260509160345 | 56 | 156 | 0.0 | 1.7 | 0.00 | 0.00 | 0.08 | 93 | 1012.1 |
| 20260509155716 | 56 | 217 | 0.9 | 1.7 | 0.00 | 0.00 | 0.08 | 93 | 1012.1 |
| 20260509154540 | 56 | 126 | 1.7 | 3.5 | 0.00 | 0.00 | 0.08 | 94 | 1012.1 |
| 20260509153940 | 56 | 118 | 1.7 | 2.6 | 0.00 | 0.00 | 0.08 | 94 | 1011.8 |
| 20260509153324 | 56 | 92 | 1.7 | 6.1 | 0.00 | 0.00 | 0.08 | 95 | 1011.8 |
| 20260509152127 | 56 | 113 | 1.7 | 2.6 | 0.00 | 0.00 | 0.08 | 96 | 1012.1 |
| 20260509150915 | 56 | 19 | 2.6 | 2.6 | 0.00 | 0.00 | 0.08 | 96 | 1011.8 |
| 20260509150315 | 56 | 43 | 0.9 | 1.7 | 0.00 | 0.00 | 0.08 | 97 | 1011.8 |
| 20260509145740 | 56 | 24 | 2.6 | 2.6 | 0.00 | 0.00 | 0.08 | 97 | 1011.8 |
| 20260509145127 | 56 | 38 | 1.7 | 2.6 | 0.00 | 0.00 | 0.08 | 97 | 1012.1 |
| 20260509144508 | 56 | 93 | 0.0 | 2.6 | 0.00 | 0.00 | 0.08 | 97 | 1012.1 |
| 20260509143907 | 56 | 31 | 1.7 | 2.6 | 0.00 | 0.00 | 0.08 | 97 | 1012.1 |
| 20260509142746 | 54 | 21 | 1.7 | 2.6 | 0.00 | 0.00 | 0.08 | 97 | 1012.1 |
| 20260509141517 | 55 | 28 | 0.0 | 0.0 | 0.00 | 0.00 | 0.08 | 97 | 1012.5 |
| 20260509140924 | 54 | 25 | 1.7 | 2.6 | 0.00 | 0.00 | 0.08 | 97 | 1012.5 |
| 20260509140344 | 54 | 23 | 1.7 | 1.7 | 0.00 | 0.00 | 0.07 | 97 | 1012.1 |
| 20260509135710 | 54 | 109 | 0.0 | 1.7 | 0.00 | 0.00 | 0.07 | 97 | 1012.1 |
| 20260509135112 | 54 | 51 | 0.0 | 1.7 | 0.00 | 0.00 | 0.07 | 97 | 1012.1 |
| 20260509134545 | 54 | 28 | 2.6 | 2.6 | 0.00 | 0.00 | 0.07 | 98 | 1012.1 |
| 20260509133914 | 54 | 25 | 2.6 | 2.6 | 0.00 | 0.00 | 0.07 | 98 | 1012.1 |
| 20260509132743 | 53 | 297 | 0.0 | 3.5 | 0.00 | 0.00 | 0.07 | 99 | 1012.1 |
| 20260509132132 | 53 | 37 | 0.0 | 1.7 | 0.00 | 0.00 | 0.07 | 99 | 1012.5 |
| 20260509131511 | 53 | 37 | 1.7 | 3.5 | 0.00 | 0.00 | 0.07 | 99 | 1012.1 |
| 20260509130917 | 52 | 82 | 0.9 | 1.7 | 0.00 | 0.00 | 0.07 | 99 | 1012.5 |
| 20260509130311 | 52 | 88 | 0.9 | 2.6 | 0.00 | 0.00 | 0.07 | 99 | 1012.5 |
| 20260509125721 | 53 | 23 | 0.9 | 1.7 | 0.00 | 0.00 | 0.07 | 99 | 1012.8 |
| 20260509125123 | 53 | 85 | 0.0 | 1.7 | 0.00 | 0.00 | 0.06 | 99 | 1012.8 |
| 20260509123935 | 52 | 141 | 1.7 | 1.7 | 0.00 | 0.00 | 0.06 | 99 | 1012.8 |
| 20260509123351 | 52 | 26 | 0.0 | 0.0 | 0.00 | 0.00 | 0.06 | 99 | 1012.5 |
| 20260509122746 | 52 | 152 | 0.9 | 1.7 | 0.00 | 0.00 | 0.06 | 99 | 1012.5 |
| 20260509122142 | 52 | 27 | 1.7 | 2.6 | 0.00 | 0.00 | 0.06 | 99 | 1012.5 |
| 20260509121510 | 52 | 26 | 3.5 | 3.5 | 0.00 | 0.00 | 0.06 | 99 | 1012.5 |
| 20260509120914 | 51 | 38 | 3.5 | 3.5 | 0.00 | 0.00 | 0.06 | 99 | 1012.8 |
| 20260509120320 | 51 | 76 | 1.7 | 3.5 | 0.00 | 0.00 | 0.06 | 99 | 1012.8 |
| 20260509115739 | 51 | 43 | 3.5 | 4.3 | 0.00 | 0.00 | 0.06 | 99 | 1012.8 |
| 20260509115121 | 51 | 34 | 3.5 | 3.5 | 0.00 | 0.00 | 0.06 | 99 | 1012.5 |
| 20260509113926 | 51 | 43 | 3.5 | 3.5 | 0.00 | 0.00 | 0.06 | 99 | 1012.5 |
| 20260509113325 | 51 | 48 | 2.6 | 3.5 | 0.00 | 0.00 | 0.06 | 99 | 1012.5 |
| 20260509112131 | 51 | 42 | 1.7 | 2.6 | 0.00 | 0.00 | 0.05 | 99 | 1012.5 |
| 20260509110934 | 51 | 23 | 1.7 | 2.6 | 0.00 | 0.00 | 0.04 | 98 | 1012.5 |
| 20260509110313 | 51 | 44 | 2.6 | 2.6 | 0.00 | 0.00 | 0.04 | 98 | 1012.5 |